"Timestamp","TZ","WindDir_Mean (deg)","WindSpd_Mean (km/h)","WindSpd_Min (km/h)","WindSpd_Max (km/h)","Temp_Mean (deg)","RH_Mean (%)","MSLP_Mean (hPa)","Rain_Acc (mm)","Rain_Intensity (mm/h)","Hail_Acc (hits/cm2)","Hail_Intensity (hits/cm2hr)","Solar_Mean (W/m2)"
2021/01/18 00:00:00.011,n,15,9,7.92,10.08,25.6,74.8,1013.92,0,0,0,0,0.027809
2021/01/18 00:01:00.000,n,17,8.28,7.2,9.36,25.6,74.8,1013.92,0,0,0,0,0.021744
2021/01/18 00:02:00.000,n,32,15.48,11.16,18.72,25.6,74.9,1013.92,0,0,0,0,0.022621
2021/01/18 00:03:00.003,n,26,19.8,19.08,21.599998,25.6,74.9,1013.92,0,0,0,0,0.028687
2021/01/18 00:04:00.001,n,14,13.68,12.6,15.12,25.5,75,1013.92,0,0,0,0,0.026093
2021/01/18 00:05:00.000,n,47,9.36,8.64,10.8,25.5,75,1013.92,0,0,0,0,0.024376
2021/01/18 00:06:00.000,n,33,12.6,10.440002,14.76,25.5,75.1,1013.92,0,0,0,0,0.029602
2021/01/18 00:07:00.009,n,22,11.16,8.28,14.04,25.5,75.1,1013.82,0,0,0,0,0.025215
2021/01/18 00:08:00.006,n,44,8.28,6.12,10.440002,25.5,75.2,1013.92,0,0,0,0,0.030441
2021/01/18 00:09:00.003,n,54,9.36,7.2,11.52,25.5,75.2,1013.82,0,0,0,0,0.02346
2021/01/18 00:10:00.001,n,355,11.16,10.440002,11.88,25.5,75.3,1013.82,0,0,0,0,0.021744
2021/01/18 00:11:00.000,n,35,12.96,11.88,14.4,25.5,75.2,1013.82,0,0,0,0,0.02346
2021/01/18 00:12:00.000,n,1,9.72,6.48,11.16,25.5,75.2,1013.82,0,0,0,0,0.01915
2021/01/18 00:13:00.000,n,358,7.56,6.12,9.36,25.5,75.2,1013.82,0,0,0,0,0.020866
2021/01/18 00:14:00.007,n,26,7.92,6.48,9.36,25.5,75.2,1013.82,0,0,0,0,0.026093
2021/01/18 00:15:00.004,n,23,11.52,9.72,12.24,25.5,75.3,1013.82,0,0,0,0,0.021744
2021/01/18 00:16:00.001,n,39,14.04,12.96,14.76,25.5,75.1,1013.82,0,0,0,0,0.024376
2021/01/18 00:17:00.000,n,15,14.04,12.96,15.12,25.5,75.4,1013.82,0,0,0,0,0.02346
2021/01/18 00:18:00.011,n,13,11.16,9.72,11.88,25.5,75.4,1013.82,0,0,0,0,0.02346
2021/01/18 00:19:00.000,n,24,9,7.92,10.440002,25.5,75.5,1013.82,0,0,0,0,0.022621
2021/01/18 00:20:00.000,n,42,16.56,5.04,24.84,25.5,75.5,1013.82,0,0,0,0,0.021744
2021/01/18 00:21:00.003,n,63,6.84,1.44,9.36,25.4,75.6,1013.82,0,0,0,0,0.020866
2021/01/18 00:22:00.002,n,42,12.96,11.88,14.4,25.4,75.7,1013.82,0,0,0,0,0.024376
2021/01/18 00:23:00.000,n,13,13.68,12.6,14.4,25.4,75.7,1013.82,0,0,0,0,0.021744
2021/01/18 00:24:00.000,n,21,7.56,6.84,8.64,25.4,75.8,1013.82,0,0,0,0,0.02346
2021/01/18 00:25:00.009,n,39,5.76,3.96,8.64,25.4,75.8,1013.82,0,0,0,0,0.019989
2021/01/18 00:26:00.006,n,28,7.2,6.48,7.56,25.4,75.9,1013.82,0,0,0,0,0.02346
2021/01/18 00:27:00.004,n,42,17.28,16.2,18,25.4,75.9,1013.72,0,0,0,0,0.024376
2021/01/18 00:28:00.000,n,32,9,1.8,12.96,25.4,76,1013.82,0,0,0,0,0.01915
2021/01/18 00:29:00.000,n,33,18.359998,16.2,19.8,25.4,76.1,1013.82,0,0,0,0,0.021744
2021/01/18 00:30:00.000,n,36,7.92,4.32,10.8,25.4,76.1,1013.82,0,0,0,0,0.020866
2021/01/18 00:31:00.000,n,49,6.12,5.04,6.84,25.4,76.1,1013.82,0,0,0,0,0.01915
2021/01/18 00:32:00.005,n,28,7.92,5.4,9.36,25.4,76.2,1013.82,0,0,0,0,0.017395
2021/01/18 00:33:00.002,n,39,9.72,7.56,11.16,25.4,76.2,1013.82,0,0,0,0,0.020866
2021/01/18 00:34:00.000,n,52,4.68,3.6,5.76,25.4,76.3,1013.82,0,0,0,0,0.021744
2021/01/18 00:35:00.012,n,45,6.48,5.76,7.56,25.3,76.4,1013.82,0,0,0,0,0.019989
2021/01/18 00:36:00.010,n,36,7.56,7.2,7.92,25.3,76.5,1013.82,0,0,0,0,0.022621
2021/01/18 00:37:00.000,n,101,6.12,5.04,6.48,25.3,76.5,1013.82,0,0,0,0,0.01915
2021/01/18 00:38:00.000,n,21,6.84,6.12,7.56,25.3,76.6,1013.82,0,0,0,0,0.022621
2021/01/18 00:39:00.001,n,37,7.56,7.2,8.64,25.3,76.6,1013.82,0,0,0,0,0.01915
2021/01/18 00:40:00.000,n,40,10.440002,7.56,11.52,25.3,76.7,1013.82,0,0,0,0,0.020866
2021/01/18 00:41:00.000,n,66,1.8,1.44,2.52,25.3,76.8,1013.82,0,0,0,0,0.017395
2021/01/18 00:42:00.009,n,25,6.84,5.76,8.28,25.3,76.8,1013.92,0,0,0,0,0.018272
2021/01/18 00:43:00.006,n,47,5.04,4.32,6.84,25.3,76.7,1013.92,0,0,0,0,0.013924
2021/01/18 00:44:00.002,n,47,7.56,6.84,8.28,25.3,76.7,1013.92,0,0,0,0,0.017395
2021/01/18 00:45:00.001,n,49,7.92,7.2,8.64,25.3,76.9,1013.92,0,0,0,0,0.020866
2021/01/18 00:46:00.000,n,51,6.12,5.04,6.84,25.3,76.8,1013.92,0,0,0,0,0.020866
2021/01/18 00:47:00.000,n,51,6.12,5.76,6.48,25.3,76.9,1013.92,0,0,0,0,0.021744
2021/01/18 00:48:00.000,n,62,5.76,4.68,6.48,25.3,77,1013.92,0,0,0,0,0.021744
2021/01/18 00:49:00.000,n,32,6.12,5.76,6.84,25.3,77.1,1014.02,0,0,0,0,0.019989
2021/01/18 00:50:00.005,n,84,5.76,5.76,6.48,25.3,77.2,1014.02,0,0,0,0,0.022621
2021/01/18 00:51:00.002,n,22,5.76,5.4,6.48,25.3,77.1,1014.02,0,0,0,0,0.016518
2021/01/18 00:52:00.000,n,86,4.68,3.96,5.04,25.3,77.2,1014.02,0,0,0,0,0.019989
2021/01/18 00:53:00.013,n,58,3.96,3.6,5.4,25.3,77.2,1014.02,0,0,0,0,0.020866
2021/01/18 00:54:00.010,n,42,9.72,8.64,10.440002,25.3,77.2,1014.02,0,0,0,0,0.018272
2021/01/18 00:55:00.000,n,47,6.12,5.76,6.48,25.3,77.3,1014.02,0,0,0,0,0.018272
2021/01/18 00:56:00.000,n,17,5.76,3.6,7.2,25.3,77.4,1013.92,0,0,0,0,0.020866
2021/01/18 00:57:00.003,n,43,6.12,5.76,6.48,25.3,77.4,1013.92,0,0,0,0,0.018272
2021/01/18 00:58:00.000,n,42,6.12,5.76,6.84,25.3,77.4,1013.92,0,0,0,0,0.01915
2021/01/18 00:59:00.000,n,38,6.84,6.84,7.2,25.3,77.4,1013.92,0,0,0,0,0.017395
2021/01/18 01:00:00.010,n,82,7.56,5.4,10.08,25.3,77.5,1013.92,0,0,0,0,0.020866
2021/01/18 01:01:00.007,n,63,7.2,6.48,8.28,25.3,77.5,1013.82,0,0,0,0,0.020866
2021/01/18 01:02:00.004,n,12,7.56,6.84,8.28,25.3,77.5,1013.82,0,0,0,0,0.019989
2021/01/18 01:03:00.001,n,67,3.96,3.24,4.32,25.3,77.5,1013.82,0,0,0,0,0.031319
2021/01/18 01:04:00.000,n,57,3.6,1.8,6.12,25.3,77.5,1013.82,0,0,0,0,0.033073
2021/01/18 01:05:00.000,n,25,7.92,7.2,8.28,25.3,77.5,1013.82,0,0,0,0,0.035667
2021/01/18 01:06:00.000,n,20,5.76,5.04,6.84,25.3,77.5,1013.82,0,0,0,0,0.029564
2021/01/18 01:07:00.005,n,21,5.76,4.68,6.84,25.3,77.5,1013.82,0,0,0,0,0.029564
2021/01/18 01:08:00.002,n,37,5.04,5.04,5.76,25.3,77.5,1013.82,0,0,0,0,0.027847
2021/01/18 01:09:00.000,n,19,4.32,3.96,4.68,25.3,77.5,1013.82,0,0,0,0,0.029564
2021/01/18 01:10:00.012,n,45,3.6,3.24,3.96,25.3,77.5,1013.82,0,0,0,0,0.02697
2021/01/18 01:11:00.009,n,37,5.4,5.04,5.76,25.3,77.5,1013.82,0,0,0,0,0.028725
2021/01/18 01:12:00.006,n,22,3.24,1.44,4.68,25.3,77.6,1013.82,0,0,0,0,0.028725
2021/01/18 01:13:00.000,n,25,6.12,5.4,6.84,25.3,77.5,1013.82,0,0,0,0,0.032196
2021/01/18 01:14:00.000,n,39,6.12,6.12,6.48,25.3,77.6,1013.82,0,0,0,0,0.033073
2021/01/18 01:15:00.000,n,39,5.4,5.04,5.76,25.3,77.6,1013.82,0,0,0,0,0.0383
2021/01/18 01:16:00.000,n,30,4.32,1.08,5.4,25.3,77.6,1013.82,0,0,0,0,0.035667
2021/01/18 01:17:00.007,n,24,6.12,5.76,6.84,25.3,77.7,1013.72,0,0,0,0,0.032196
2021/01/18 01:18:00.004,n,46,7.56,6.84,9,25.3,77.8,1013.72,0,0,0,0,0.033913
2021/01/18 01:19:00.001,n,35,6.84,6.12,7.92,25.3,77.6,1013.72,0,0,0,0,0.033073
2021/01/18 01:20:00.000,n,48,7.56,6.84,8.64,25.3,77.6,1013.72,0,0,0,0,0.03479
2021/01/18 01:21:00.011,n,48,7.92,6.48,8.64,25.3,77.7,1013.72,0,0,0,0,0.033073
2021/01/18 01:22:00.000,n,46,5.04,3.96,5.76,25.3,77.7,1013.72,0,0,0,0,0.027847
2021/01/18 01:23:00.000,n,40,7.2,6.12,8.28,25.3,77.8,1013.72,0,0,0,0,0.035667
2021/01/18 01:24:00.004,n,29,9.36,9,10.08,25.3,77.9,1013.72,0,0,0,0,0.030479
2021/01/18 01:25:00.001,n,17,6.12,2.52,7.56,25.3,77.9,1013.72,0,0,0,0,0.033913
2021/01/18 01:26:00.000,n,23,7.2,6.84,7.92,25.3,77.9,1013.72,0,0,0,0,0.030479
2021/01/18 01:27:00.000,n,83,5.04,3.96,5.76,25.3,77.9,1013.72,0,0,0,0,0.033073
2021/01/18 01:28:00.009,n,45,9,7.2,10.8,25.3,77.8,1013.72,0,0,0,0,0.03479
2021/01/18 01:29:00.006,n,76,8.28,7.56,9.36,25.3,77.8,1013.72,0,0,0,0,0.030479
2021/01/18 01:30:00.004,n,56,10.8,10.440002,11.52,25.3,77.8,1013.72,0,0,0,0,0.03479
2021/01/18 01:31:00.001,n,49,4.68,4.32,5.4,25.2,77.8,1013.72,0,0,0,0,0.031319
2021/01/18 01:32:00.000,n,43,5.4,3.96,6.84,25.2,77.8,1013.62,0,0,0,0,0.033073
2021/01/18 01:33:00.000,n,45,7.56,6.48,8.28,25.2,77.8,1013.62,0,0,0,0,0.036545
2021/01/18 01:34:00.000,n,17,8.28,7.92,8.64,25.2,77.8,1013.62,0,0,0,0,0.031319
2021/01/18 01:35:00.006,n,35,10.08,9.72,10.8,25.2,78,1013.62,0,0,0,0,0.035667
2021/01/18 01:36:00.003,n,20,8.28,6.48,10.08,25.3,77.9,1013.62,0,0,0,0,0.035667
2021/01/18 01:37:00.000,n,29,7.56,7.2,8.28,25.3,77.8,1013.62,0,0,0,0,0.037422
2021/01/18 01:38:00.013,n,5,3.96,1.8,6.48,25.3,77.9,1013.62,0,0,0,0,0.033073
2021/01/18 01:39:00.010,n,15,5.04,4.68,5.4,25.3,77.9,1013.62,0,0,0,0,0.033073
2021/01/18 01:40:00.000,n,41,6.12,5.04,7.2,25.2,77.9,1013.62,0,0,0,0,0.031319
2021/01/18 01:41:00.000,n,14,5.76,5.4,6.48,25.3,77.9,1013.62,0,0,0,0,0.036545
2021/01/18 01:42:00.003,n,31,6.84,5.04,8.64,25.3,77.9,1013.62,0,0,0,0,0.033913
2021/01/18 01:43:00.000,n,58,3.96,1.44,5.04,25.3,77.8,1013.52,0,0,0,0,0.03479
2021/01/18 01:44:00.000,n,30,5.04,0.72,6.48,25.3,77.8,1013.52,0,0,0,0,0.03479
2021/01/18 01:45:00.000,n,25,8.28,6.48,9.72,25.3,77.7,1013.52,0,0,0,0,0.03479
2021/01/18 01:46:00.009,n,19,9,5.76,12.24,25.3,77.8,1013.52,0,0,0,0,0.033913
2021/01/18 01:47:00.007,n,37,8.64,7.92,9,25.3,77.7,1013.52,0,0,0,0,0.0383
2021/01/18 01:48:00.005,n,58,6.12,5.4,7.2,25.3,77.7,1013.52,0,0,0,0,0.033913
2021/01/18 01:49:00.000,n,62,5.04,4.68,5.4,25.3,77.8,1013.52,0,0,0,0,0.033073
2021/01/18 01:50:00.000,n,67,6.84,5.76,7.56,25.3,77.8,1013.42,0,0,0,0,0.03479
2021/01/18 01:51:00.000,n,57,5.4,5.4,5.76,25.3,77.8,1013.42,0,0,0,0,0.037422
2021/01/18 01:52:00.000,n,32,5.76,5.4,6.12,25.3,77.8,1013.42,0,0,0,0,0.029564
2021/01/18 01:53:00.007,n,42,4.68,3.96,5.76,25.3,77.8,1013.42,0,0,0,0,0.033073
2021/01/18 01:54:00.004,n,33,5.4,2.88,9,25.3,77.8,1013.42,0,0,0,0,0.033913
2021/01/18 01:55:00.001,n,30,4.68,4.32,5.04,25.2,77.8,1013.42,0,0,0,0,0.036545
2021/01/18 01:56:00.000,n,51,5.76,5.04,5.76,25.2,77.9,1013.42,0,0,0,0,0.029564
2021/01/18 01:57:00.011,n,56,3.6,3.24,3.6,25.2,77.9,1013.42,0,0,0,0,0.035667
2021/01/18 01:58:00.000,n,57,4.32,3.96,4.32,25.2,78,1013.42,0,0,0,0,0.031319
2021/01/18 01:59:00.000,n,38,4.32,3.6,5.04,25.2,78,1013.42,0,0,0,0,0.030479
2021/01/18 02:00:00.002,n,86,3.6,2.52,5.04,25.2,78,1013.42,0,0,0,0,0.037422
2021/01/18 02:01:00.000,n,80,3.96,3.6,4.68,25.2,78,1013.32,0,0,0,0,0.037422
2021/01/18 02:02:00.000,n,85,3.6,3.6,3.96,25.2,78.1,1013.32,0,0,0,0,0.036545
2021/01/18 02:03:00.009,n,101,1.8,1.44,2.16,25.2,78.1,1013.32,0,0,0,0,0.035667
2021/01/18 02:04:00.006,n,83,3.6,3.24,3.6,25.2,78.1,1013.32,0,0,0,0,0.033913
2021/01/18 02:05:00.003,n,76,3.96,3.6,4.32,25.2,78.1,1013.32,0,0,0,0,0.033913
2021/01/18 02:06:00.000,n,75,3.24,3.24,3.6,25.2,78.1,1013.22,0,0,0,0,0.033073
2021/01/18 02:07:00.000,n,102,2.88,2.52,3.24,25.1,78.2,1013.22,0,0,0,0,0.032196
2021/01/18 02:08:00.000,n,97,2.52,2.16,2.88,25.1,78.3,1013.22,0,0,0,0,0.032196
2021/01/18 02:09:00.000,n,83,2.88,2.88,2.88,25.1,78.3,1013.22,0,0,0,0,0.033913
2021/01/18 02:10:00.006,n,44,6.48,6.12,7.2,25.1,78.4,1013.22,0,0,0,0,0.039139
2021/01/18 02:11:00.003,n,71,6.12,5.76,6.84,25.1,78.4,1013.22,0,0,0,0,0.040016
2021/01/18 02:12:00.000,n,37,8.64,8.28,9,25.1,78.5,1013.22,0,0,0,0,0.040016
2021/01/18 02:13:00.000,n,41,7.56,7.56,7.92,25.1,78.5,1013.22,0,0,0,0,0.035667
2021/01/18 02:14:00.010,n,38,6.84,6.12,7.2,25.1,78.5,1013.22,0,0,0,0,0.037422
2021/01/18 02:15:00.007,n,56,4.68,3.96,5.04,25.1,78.6,1013.12,0,0,0,0,0.033913
2021/01/18 02:16:00.000,n,54,5.4,5.04,5.76,25.1,78.6,1013.12,0,0,0,0,0.036545
2021/01/18 02:17:00.002,n,24,4.32,3.96,4.68,25.1,78.6,1013.12,0,0,0,0,0.035667
2021/01/18 02:18:00.000,n,25,2.88,1.44,5.04,25.1,78.6,1013.12,0,0,0,0,0.033073
2021/01/18 02:19:00.000,n,52,2.16,1.44,2.88,25.1,78.6,1013.12,0,0,0,0,0.035667
2021/01/18 02:20:00.000,n,73,2.16,1.8,2.52,25.1,78.5,1013.02,0,0,0,0,0.037422
2021/01/18 02:21:00.007,n,60,1.8,1.8,2.16,25.1,78.4,1013.02,0,0,0,0,0.033073
2021/01/18 02:22:00.004,n,67,2.52,1.8,3.6,25.1,78.4,1013.02,0,0,0,0,0.035667
2021/01/18 02:23:00.001,n,37,5.4,5.04,5.76,25.1,78.4,1013.02,0,0,0,0,0.035667
2021/01/18 02:24:00.015,n,29,5.76,5.4,6.12,25.1,78.4,1013.02,0,0,0,0,0.035667
2021/01/18 02:25:00.000,n,15,5.04,4.68,5.4,25.1,78.5,1013.02,0,0,0,0,0.032196
2021/01/18 02:26:00.000,n,25,6.48,6.12,7.56,25.1,78.4,1013.02,0,0,0,0,0.033073
2021/01/18 02:27:00.000,n,27,2.88,2.16,3.24,25.1,78.4,1013.02,0,0,0,0,0.035667
2021/01/18 02:28:00.004,n,34,3.6,2.52,4.32,25.1,78.4,1012.92,0,0,0,0,0.032196
2021/01/18 02:29:00.002,n,34,5.04,4.32,5.76,25.1,78.3,1012.92,0,0,0,0,0.033913
2021/01/18 02:30:00.000,n,44,3.96,3.6,4.32,25.2,78.2,1012.92,0,0,0,0,0.033073
2021/01/18 02:31:00.000,n,38,3.6,3.24,3.96,25.2,78.2,1012.92,0,0,0,0,0.029564
2021/01/18 02:32:00.010,n,39,2.88,2.88,2.88,25.2,78.2,1012.92,0,0,0,0,0.029564
2021/01/18 02:33:00.008,n,53,3.6,2.88,3.96,25.2,78.2,1012.92,0,0,0,0,0.037422
2021/01/18 02:34:00.000,n,37,2.88,2.88,3.24,25.2,78.2,1012.92,0,0,0,0,0.030479
2021/01/18 02:35:00.003,n,46,3.6,3.24,4.32,25.2,78.1,1012.92,0,0,0,0,0.032196
2021/01/18 02:36:00.000,n,19,3.24,2.88,3.24,25.2,78.1,1012.92,0,0,0,0,0.0383
2021/01/18 02:37:00.000,n,18,3.96,3.6,4.32,25.2,78.2,1013.02,0,0,0,0,0.040016
2021/01/18 02:38:00.000,n,35,3.6,2.88,4.32,25.2,78.1,1013.02,0,0,0,0,0.035667
2021/01/18 02:39:00.008,n,28,3.6,2.88,4.32,25.2,78,1013.02,0,0,0,0,0.036545
2021/01/18 02:40:00.005,n,21,5.04,5.04,5.4,25.2,77.9,1013.02,0,0,0,0,0.039139
2021/01/18 02:41:00.002,n,23,4.68,4.32,4.68,25.2,78,1013.02,0,0,0,0,0.035667
2021/01/18 02:42:00.000,n,81,1.8,1.08,2.88,25.2,78,1013.02,0,0,0,0,0.03479
2021/01/18 02:43:00.000,n,46,3.24,2.52,3.96,25.2,77.9,1013.02,0,0,0,0,0.037422
2021/01/18 02:44:00.000,n,52,3.96,2.16,4.68,25.2,77.9,1013.02,0,0,0,0,0.039139
2021/01/18 02:45:00.000,n,7,6.48,5.76,7.2,25.2,77.8,1013.02,0,0,0,0,0.030479
2021/01/18 02:46:00.004,n,7,9.36,8.64,9.72,25.2,77.5,1013.02,0,0,0,0,0.037422
2021/01/18 02:47:00.002,n,1,8.28,7.92,8.28,25.2,77.8,1013.02,0,0,0,0,0.036545
2021/01/18 02:48:00.000,n,38,5.04,4.68,5.76,25.3,77.6,1013.02,0,0,0,0,0.037422
2021/01/18 02:49:00.011,n,30,7.92,6.84,9,25.2,77.3,1013.02,0,0,0,0,0.037422
2021/01/18 02:50:00.009,n,24,7.56,7.2,7.92,25.2,77.3,1013.12,0,0,0,0,0.037422
2021/01/18 02:51:00.005,n,32,5.76,5.4,6.12,25.2,77.2,1013.12,0,0,0,0,0.039139
2021/01/18 02:52:00.000,n,34,8.28,6.84,9.36,25.2,77.2,1013.12,0,0,0,0,0.044365
2021/01/18 02:53:00.000,n,26,5.76,5.04,6.48,25.3,77.3,1013.12,0,0,0,0,0.033073
2021/01/18 02:54:00.000,n,28,8.64,8.28,9,25.2,76.5,1013.02,0,0,0,0,0.033913
2021/01/18 02:55:00.000,n,32,8.28,5.76,9,25.2,76.6,1013.02,0,0,0,0,0.0383
2021/01/18 02:56:00.007,n,21,6.48,5.4,7.2,25.2,76.8,1013.02,0,0,0,0,0.0383
2021/01/18 02:57:00.003,n,25,2.16,0.72,3.6,25.2,76.8,1013.02,0,0,0,0,0.039139
2021/01/18 02:58:00.000,n,45,8.28,6.48,9.36,25.2,76.5,1013.02,0,0,0,0,0.03479
2021/01/18 02:59:00.013,n,37,7.56,6.48,8.64,25.2,76.5,1013.02,0,0,0,0,0.035667
2021/01/18 03:00:00.010,n,15,7.92,5.4,8.64,25.2,76.5,1013.02,0,0,0,0,0.03479
2021/01/18 03:01:00.000,n,29,9.36,8.64,10.08,25.2,76.6,1013.12,0,0,0,0,0.0383
2021/01/18 03:02:00.000,n,27,6.84,5.4,9,25.1,76.6,1013.02,0,0,0,0,0.0383
2021/01/18 03:03:00.000,n,38,7.56,6.84,7.92,25.1,76.6,1013.02,0,0,0,0,0.03479
2021/01/18 03:04:00.000,n,43,7.92,7.2,8.64,25.1,76.7,1013.02,0,0,0,0,0.033913
2021/01/18 03:05:00.000,n,33,4.32,3.24,6.48,25.1,76.7,1013.12,0,0,0,0,0.035667
2021/01/18 03:06:00.008,n,10,6.48,6.48,7.2,25.1,76.8,1013.12,0,0,0,0,0.035667
2021/01/18 03:07:00.004,n,13,4.68,4.32,5.04,25.1,76.9,1013.12,0,0,0,0,0.0383
2021/01/18 03:08:00.001,n,23,5.04,4.68,5.4,25.2,77,1013.12,0,0,0,0,0.035667
2021/01/18 03:09:00.015,n,352,4.32,3.96,5.04,25.2,77,1013.12,0,0,0,0,0.033073
2021/01/18 03:10:00.000,n,16,3.6,3.24,3.6,25.2,77,1013.12,0,0,0,0,0.029564
2021/01/18 03:11:00.000,n,14,4.32,3.96,5.04,25.2,77,1013.12,0,0,0,0,0.035667
2021/01/18 03:12:00.000,n,67,1.44,1.44,1.8,25.2,77.2,1013.12,0,0,0,0,0.036545
2021/01/18 03:13:00.004,n,345,3.24,2.52,3.96,25.2,77.2,1013.12,0,0,0,0,0.033073
2021/01/18 03:14:00.001,n,122,1.44,0.72,1.8,25.2,77.1,1013.12,0,0,0,0,0.033073
2021/01/18 03:15:00.000,n,243,5.04,3.6,7.56,25.1,76.4,1013.12,0,0,0,0,0.02697
2021/01/18 03:16:00.000,n,262,6.48,5.76,8.64,25.1,76.5,1013.22,0,0,0,0,0.033073
2021/01/18 03:17:00.010,n,235,4.32,3.6,5.04,25,75.9,1013.22,0,0,0,0,0.031319
2021/01/18 03:18:00.007,n,233,3.24,2.88,3.6,24.9,76,1013.22,0,0,0,0,0.03479
2021/01/18 03:19:00.000,n,268,5.4,3.24,6.12,24.9,77.2,1013.22,0,0,0,0,0.036545
2021/01/18 03:20:00.000,n,243,5.04,4.32,6.12,24.8,76.8,1013.22,0,0,0,0,0.035667
2021/01/18 03:21:00.000,n,254,5.4,4.68,6.12,24.8,77,1013.22,0,0,0,0,0.033073
2021/01/18 03:22:00.000,n,240,3.24,2.88,4.32,24.7,76.8,1013.22,0,0,0,0,0.031319
2021/01/18 03:23:00.008,n,254,7.2,6.48,7.56,24.6,76.6,1013.22,0,0,0,0,0.033073
2021/01/18 03:24:00.005,n,238,4.68,4.32,5.4,24.6,76.9,1013.12,0,0,0,0,0.032196
2021/01/18 03:25:00.002,n,259,3.96,3.6,4.32,24.5,76.7,1013.12,0,0,0,0,0.033073
2021/01/18 03:26:00.000,n,266,6.48,5.4,7.2,24.4,76.8,1013.12,0,0,0,0,0.033913
2021/01/18 03:27:00.012,n,255,5.4,4.68,5.76,24.4,77,1013.12,0,0,0,0,0.035667
2021/01/18 03:28:00.000,n,255,5.76,3.6,6.48,24.4,77.8,1013.12,0,0,0,0,0.030479
2021/01/18 03:29:00.000,n,243,4.32,3.24,6.12,24.5,78.4,1013.12,0,0,0,0,0.036545
2021/01/18 03:30:00.003,n,290,3.96,2.52,5.04,24.5,78,1013.22,0,0,0,0,0.033913
2021/01/18 03:31:00.000,n,243,1.44,1.08,2.16,24.5,77.6,1013.22,0,0,0,0,0.032196
2021/01/18 03:32:00.000,n,247,5.04,4.32,5.76,24.4,78,1013.22,0,0,0,0,0.028725
2021/01/18 03:33:00.000,n,217,2.52,2.16,2.88,24.4,77.7,1013.22,0,0,0,0,0.029564
2021/01/18 03:34:00.008,n,248,3.24,3.24,3.6,24.4,77.5,1013.22,0,0,0,0,0.030479
2021/01/18 03:35:00.005,n,209,1.8,1.8,2.52,24.4,78,1013.22,0,0,0,0,0.03479
2021/01/18 03:36:00.002,n,245,4.68,3.96,5.4,24.4,78.2,1013.22,0,0,0,0,0.028725
2021/01/18 03:37:00.000,n,243,3.96,2.88,5.4,24.4,78.2,1013.22,0,0,0,0,0.029564
2021/01/18 03:38:00.000,n,108,2.16,1.44,2.88,24.4,77.9,1013.22,0,0,0,0,0.032196
2021/01/18 03:39:00.000,n,226,3.24,2.52,3.96,24.3,77.8,1013.22,0,0,0,0,0.029564
2021/01/18 03:40:00.006,n,204,4.32,3.96,4.68,24.3,77.7,1013.22,0,0,0,0,0.033073
2021/01/18 03:41:00.003,n,237,2.88,2.16,3.6,24.3,77.8,1013.32,0,0,0,0,0.028725
2021/01/18 03:42:00.000,n,17,2.52,1.8,2.88,24.3,77.9,1013.32,0,0,0,0,0.024338
2021/01/18 03:43:00.000,n,168,1.44,0.72,2.52,24.3,77.9,1013.32,0,0,0,0,0.031319
2021/01/18 03:44:00.010,n,244,2.88,2.52,3.24,24.3,77.6,1013.22,0,0,0,0,0.024338
2021/01/18 03:45:00.007,n,98,1.08,0.72,1.44,24.3,77.7,1013.22,0,0,0,0,0.02697
2021/01/18 03:46:00.000,n,154,2.16,1.08,3.24,24.2,77.8,1013.22,0,0,0,0,0.029564
2021/01/18 03:47:00.002,n,129,2.16,1.44,2.52,24.2,77.6,1013.22,0,0,0,0,0.030479
2021/01/18 03:48:00.000,n,212,1.8,1.44,2.16,24.2,77.7,1013.22,0,0,0,0,0.024338
2021/01/18 03:49:00.000,n,144,2.16,1.08,2.88,24.2,77.7,1013.22,0,0,0,0,0.028725
2021/01/18 03:50:00.000,n,168,5.04,4.32,5.4,24.2,77.6,1013.22,0,0,0,0,0.029564
2021/01/18 03:51:00.007,n,166,2.88,2.52,3.6,24.2,77.7,1013.32,0,0,0,0,0.021744
2021/01/18 03:52:00.004,n,178,2.52,1.8,3.24,24.2,77.7,1013.32,0,0,0,0,0.026131
2021/01/18 03:53:00.002,n,170,3.96,3.6,4.32,24.2,77.7,1013.32,0,0,0,0,0.025253
2021/01/18 03:54:00.016,n,242,3.6,3.6,3.96,24.2,77.8,1013.42,0,0,0,0,0.020027
2021/01/18 03:55:00.000,n,245,2.88,1.8,3.6,24.2,78,1013.42,0,0,0,0,0.028725
2021/01/18 03:56:00.000,n,230,3.24,2.88,3.24,24.2,77.8,1013.42,0,0,0,0,0.024338
2021/01/18 03:57:00.000,n,256,2.52,1.08,3.6,24.2,77.9,1013.42,0,0,0,0,0.027847
2021/01/18 03:58:00.006,n,239,5.4,4.32,5.76,24.2,78.2,1013.42,0,0,0,0,0.024338
2021/01/18 03:59:00.004,n,258,2.16,1.8,2.52,24.2,78.5,1013.42,0,0,0,0,0.027847
2021/01/18 04:00:00.001,n,243,3.6,3.6,3.6,24.2,78,1013.42,0,0,0,0,0.021744
2021/01/18 04:01:00.000,n,276,3.96,3.24,4.68,24.2,77.9,1013.52,0,0,0,0,0.02697
2021/01/18 04:02:00.011,n,278,2.88,2.16,3.24,24.2,78.6,1013.52,0,0,0,0,0.02697
2021/01/18 04:03:00.008,n,182,1.08,0.36,2.16,24.3,78.8,1013.52,0,0,0,0,0.024338
2021/01/18 04:04:00.000,n,116,1.08,0.72,1.8,24.3,78.4,1013.52,0,0,0,0,0.02697
2021/01/18 04:05:00.003,n,253,1.08,0.36,2.52,24.3,78.2,1013.52,0,0,0,0,0.021744
2021/01/18 04:06:00.000,n,24,1.44,0.72,2.88,24.3,78,1013.52,0,0,0,0,0.02697
2021/01/18 04:07:00.000,n,251,3.96,3.96,4.32,24.3,78,1013.52,0,0,0,0,0.01915
2021/01/18 04:08:00.000,n,222,1.8,1.44,2.16,24.3,78.3,1013.52,0,0,0,0,0.025253
2021/01/18 04:09:00.008,n,293,5.4,4.32,6.12,24.3,78.7,1013.52,0,0,0,0,0.023499
2021/01/18 04:10:00.005,n,205,1.44,1.08,1.8,24.3,78.2,1013.52,0,0,0,0,0.024338
2021/01/18 04:11:00.002,n,266,4.32,3.6,4.68,24.3,77.9,1013.52,0,0,0,0,0.024338
2021/01/18 04:12:00.016,n,232,2.88,2.88,3.24,24.2,77.8,1013.52,0,0,0,0,0.026131
2021/01/18 04:13:00.000,n,236,5.76,5.4,6.12,24.2,77.7,1013.52,0,0,0,0,0.02697
2021/01/18 04:14:00.000,n,247,2.88,2.16,3.6,24.1,78.1,1013.52,0,0,0,0,0.023499
2021/01/18 04:15:00.000,n,246,4.32,2.16,5.4,24.2,78.6,1013.52,0,0,0,0,0.020027
2021/01/18 04:16:00.005,n,233,3.24,2.88,3.96,24.2,78.1,1013.52,0,0,0,0,0.020905
2021/01/18 04:17:00.002,n,195,2.16,1.8,2.52,24.1,77.9,1013.52,0,0,0,0,0.017395
2021/01/18 04:18:00.000,n,270,4.68,3.96,5.4,24.1,78.8,1013.62,0,0,0,0,0.01915
2021/01/18 04:19:00.000,n,268,7.92,5.76,11.52,24.1,79.1,1013.62,0,0,0,0,0.024338
2021/01/18 04:20:00.009,n,261,7.56,6.12,8.64,24.2,79.1,1013.62,0,0,0,0,0.01915
2021/01/18 04:21:00.007,n,259,5.76,5.04,6.84,24.2,78.9,1013.62,0,0,0,0,0.017395
2021/01/18 04:22:00.000,n,248,7.92,7.56,8.64,24.2,78.3,1013.72,0,0,0,0,0.017395
2021/01/18 04:23:00.002,n,265,6.12,6.12,7.2,24.1,78.6,1013.72,0,0,0,0,0.023499
2021/01/18 04:24:00.000,n,263,6.48,6.12,7.56,24.1,78.7,1013.72,0,0,0,0,0.020905
2021/01/18 04:25:00.000,n,284,4.68,4.32,5.4,24,78.6,1013.72,0,0,0,0,0.021744
2021/01/18 04:26:00.000,n,245,5.76,3.6,6.84,24,78.5,1013.72,0,0,0,0,0.018272
2021/01/18 04:27:00.007,n,259,5.04,4.32,5.04,24,78.9,1013.72,0,0,0,0,0.020905
2021/01/18 04:28:00.005,n,235,3.96,3.24,4.68,24,79.5,1013.72,0,0,0,0,0.021744
2021/01/18 04:29:00.002,n,320,0.36,0.36,0.72,24,79.1,1013.72,0,0,0,0,0.01915
2021/01/18 04:30:00.016,n,215,4.68,4.32,5.04,24,79,1013.82,0,0,0,0,0.01915
2021/01/18 04:31:00.000,n,213,4.32,3.24,5.04,24,79.3,1013.82,0,0,0,0,0.021744
2021/01/18 04:32:00.000,n,215,2.16,2.16,2.16,24,79.5,1013.82,0,0,0,0,0.018272
2021/01/18 04:33:00.000,n,183,1.08,0.72,1.8,24,79.2,1013.82,0,0,0,0,0.018272
2021/01/18 04:34:00.004,n,196,3.6,3.24,4.32,23.9,79.3,1013.82,0,0,0,0,0.017395
2021/01/18 04:35:00.001,n,194,1.08,0.36,1.8,23.9,79.6,1013.82,0,0,0,0,0.027847
2021/01/18 04:36:00.000,n,248,5.4,5.04,6.84,23.9,79.7,1013.82,0,0,0,0,0.030479
2021/01/18 04:37:00.009,n,221,2.52,2.16,3.24,24,79.9,1013.82,0,0,0,0,0.030479
2021/01/18 04:38:00.005,n,262,4.68,3.96,5.76,24,80,1013.82,0,0,0,0,0.036545
2021/01/18 04:39:00.002,n,288,3.96,2.52,6.48,24,80.1,1013.82,0,0,0,0,0.037422
2021/01/18 04:40:00.000,n,270,7.56,6.84,8.64,24,80.1,1013.82,0,0,0,0,0.040932
2021/01/18 04:41:00.000,n,277,8.28,7.56,9,24,80,1013.82,0,0,0,0,0.0383
2021/01/18 04:42:00.000,n,266,7.56,6.84,7.92,23.9,79.4,1013.92,0,0,0,0,0.04612
2021/01/18 04:43:00.006,n,271,9.36,8.64,9.72,23.9,79.4,1013.92,0,0,0,0,0.051346
2021/01/18 04:44:00.003,n,241,5.04,4.68,5.4,23.8,79.7,1013.92,0,0,0,0,0.05394
2021/01/18 04:45:00.000,n,243,4.32,3.24,5.4,23.8,80,1013.92,0,0,0,0,0.065269
2021/01/18 04:46:00.000,n,218,3.24,2.52,5.76,23.8,80.4,1013.92,0,0,0,0,0.08091
2021/01/18 04:47:00.011,n,169,2.88,2.88,3.24,23.8,80.4,1013.92,0,0,0,0,0.105286
2021/01/18 04:48:00.009,n,151,3.24,1.8,5.04,23.8,80.2,1013.92,0,0,0,0,0.13485
2021/01/18 04:49:00.000,n,168,3.24,2.16,3.96,23.7,80.2,1013.92,0,0,0,0,0.177422
2021/01/18 04:50:00.000,n,163,4.68,4.32,5.04,23.7,80.2,1013.92,0,0,0,0,0.227852
2021/01/18 04:51:00.002,n,174,4.68,3.96,5.4,23.7,80.2,1013.92,0,0,0,0,0.28347
2021/01/18 04:52:00.000,n,198,1.44,1.08,1.8,23.7,80.3,1013.92,0,0,0,0,0.340805
2021/01/18 04:53:00.000,n,197,1.08,0.36,2.52,23.7,80.4,1013.92,0,0,0,0,0.415421
2021/01/18 04:54:00.000,n,125,1.44,0.72,2.16,23.6,80.3,1013.92,0,0,0,0,0.503082
2021/01/18 04:55:00.008,n,136,2.16,0.72,2.88,23.6,80.4,1013.92,0,0,0,0,0.596657
2021/01/18 04:56:00.006,n,179,2.88,2.16,3.24,23.6,80.3,1013.92,0,0,0,0,0.698509
2021/01/18 04:57:00.002,n,78,1.44,1.08,1.8,23.6,80.4,1013.92,0,0,0,0,0.807266